When you browse on this site, cookies collect data to enhance your experience and personalize the content and advertising you see.
Visit our Privacy Policy to learn more. By continuing to use the site, you agree to this use of cookies and data.
  • In United Kingdom
  • List of Countries
  • For 7 days
  • Water Temperature
  • Satellite Maps
  • Weather Map
  • Weather Widgets
  • user-avatar
    Login

    Hourly Weather Brikama

    Today, 18 November, Sunday

    Time Temperature Precipitation Wind Pressure Humidity
    00:00 +28°C° 0 mm 7 mps 756 mmHg 59%
    01:00 +28°C° 0 mm 7 mps 756 mmHg 60%
    02:00 +28°C° 0 mm 7 mps 756 mmHg 61%
    03:00 +27°C° 0 mm 6 mps 756 mmHg 62%
    04:00 +27°C° 0 mm 6 mps 756 mmHg 63%
    05:00 +27°C° 0 mm 5 mps 756 mmHg 64%
    06:00 +27°C° 0 mm 5 mps 757 mmHg 64%
    07:00 +28°C° 0 mm 5 mps 757 mmHg 63%
    08:00 +28°C° 0 mm 6 mps 758 mmHg 63%
    09:00 +29°C° 0 mm 5 mps 758 mmHg 60%
    10:00 +29°C° 0 mm 4 mps 758 mmHg 56%
    11:00 +30°C° 0 mm 3 mps 758 mmHg 53%
    12:00 +29°C° 0.5 mm 3 mps 757 mmHg 57%
    13:00 +28°C° 0.5 mm 2 mps 757 mmHg 60%
    14:00 +28°C° 0.5 mm 2 mps 756 mmHg 63%
    15:00 +27°C° 0.5 mm 2 mps 756 mmHg 66%
    16:00 +26°C° 0.5 mm 1 mps 756 mmHg 69%
    17:00 +26°C° 0.5 mm 1 mps 756 mmHg 72%
    18:00 +26°C° 0 mm 1 mps 757 mmHg 71%
    19:00 +25°C° 0 mm 1 mps 757 mmHg 69%
    20:00 +25°C° 0 mm 1 mps 758 mmHg 68%
    21:00 +25°C° 0.2 mm 2 mps 758 mmHg 69%
    22:00 +25°C° 0.2 mm 3 mps 758 mmHg 69%
    23:00 +25°C° 0.2 mm 3 mps 758 mmHg 70%

    Tomorrow, 19 November, Monday

    Time Temperature Precipitation Wind Pressure Humidity
    00:00 +24°C° 0.2 mm 3 mps 758 mmHg 71%
    01:00 +24°C° 0.2 mm 3 mps 757 mmHg 73%
    02:00 +24°C° 0.2 mm 3 mps 757 mmHg 74%
    03:00 +24°C° 0.1 mm 3 mps 757 mmHg 75%
    04:00 +24°C° 0.1 mm 2 mps 756 mmHg 75%
    05:00 +24°C° 0.1 mm 1 mps 756 mmHg 75%
    06:00 +24°C° 0.2 mm 2 mps 757 mmHg 74%
    07:00 +24°C° 0.2 mm 2 mps 757 mmHg 74%
    08:00 +25°C° 0.2 mm 2 mps 757 mmHg 73%
    09:00 +27°C° 0 mm 2 mps 757 mmHg 65%
    10:00 +29°C° 0 mm 2 mps 758 mmHg 58%
    11:00 +31°C° 0 mm 2 mps 758 mmHg 51%
    12:00 +31°C° 0 mm 2 mps 757 mmHg 49%
    13:00 +32°C° 0 mm 2 mps 756 mmHg 48%
    14:00 +32°C° 0 mm 2 mps 756 mmHg 46%
    15:00 +32°C° 0 mm 2 mps 756 mmHg 49%
    16:00 +31°C° 0 mm 2 mps 756 mmHg 52%
    17:00 +30°C° 0 mm 3 mps 756 mmHg 55%
    18:00 +29°C° 0 mm 3 mps 756 mmHg 59%
    19:00 +28°C° 0 mm 3 mps 757 mmHg 64%
    20:00 +27°C° 0 mm 3 mps 757 mmHg 68%
    21:00 +27°C° 0 mm 2 mps 757 mmHg 69%
    22:00 +27°C° 0 mm 2 mps 757 mmHg 70%
    23:00 +26°C° 0 mm 2 mps 758 mmHg 71%

    Day after tomorrow, 20 November, Tuesday

    Time Temperature Precipitation Wind Pressure Humidity
    00:00 +26°C° 0 mm 3 mps 757 mmHg 71%
    01:00 +26°C° 0 mm 3 mps 757 mmHg 71%
    02:00 +26°C° 0 mm 4 mps 756 mmHg 71%
    03:00 +25°C° 0 mm 4 mps 756 mmHg 71%
    04:00 +25°C° 0 mm 3 mps 756 mmHg 71%
    05:00 +25°C° 0 mm 3 mps 756 mmHg 70%
    06:00 +25°C° 0 mm 3 mps 756 mmHg 67%
    07:00 +26°C° 0 mm 4 mps 757 mmHg 63%
    08:00 +27°C° 0 mm 4 mps 757 mmHg 60%
    09:00 +29°C° 0 mm 4 mps 758 mmHg 53%
    10:00 +32°C° 0 mm 4 mps 758 mmHg 46%
    11:00 +34°C° 0 mm 4 mps 758 mmHg 39%
    12:00 +34°C° 0 mm 3 mps 757 mmHg 38%
    13:00 +35°C° 0 mm 3 mps 756 mmHg 36%
    14:00 +36°C° 0 mm 3 mps 755 mmHg 35%
    15:00 +35°C° 0 mm 3 mps 755 mmHg 39%
    16:00 +34°C° 0 mm 4 mps 755 mmHg 43%
    17:00 +33°C° 0 mm 4 mps 755 mmHg 47%
    18:00 +32°C° 0 mm 5 mps 756 mmHg 53%
    19:00 +29°C° 0 mm 5 mps 756 mmHg 59%
    20:00 +28°C° 0 mm 5 mps 757 mmHg 64%
    21:00 +28°C° 0 mm 5 mps 757 mmHg 65%
    22:00 +28°C° 0 mm 5 mps 757 mmHg 65%
    23:00 +27°C° 0 mm 4 mps 757 mmHg 66%

    21 November, Wednesday

    Time Temperature Precipitation Wind Pressure Humidity
    00:00 +27°C° 0 mm 4 mps 757 mmHg 65%
    01:00 +27°C° 0 mm 4 mps 756 mmHg 65%
    02:00 +26°C° 0 mm 4 mps 756 mmHg 64%
    03:00 +26°C° 0 mm 4 mps 756 mmHg 63%
    04:00 +26°C° 0 mm 4 mps 756 mmHg 61%
    05:00 +25°C° 0 mm 4 mps 756 mmHg 59%
    06:00 +26°C° 0 mm 4 mps 757 mmHg 55%
    07:00 +27°C° 0 mm 4 mps 757 mmHg 51%
    08:00 +28°C° 0 mm 5 mps 758 mmHg 47%
    09:00 +30°C° 0 mm 4 mps 758 mmHg 42%
    10:00 +33°C° 0 mm 4 mps 758 mmHg 37%
    11:00 +35°C° 0 mm 4 mps 757 mmHg 32%
    12:00 +36°C° 0 mm 4 mps 757 mmHg 31%
    13:00 +36°C° 0 mm 4 mps 756 mmHg 31%
    14:00 +37°C° 0 mm 3 mps 755 mmHg 30%
    15:00 +36°C° 0 mm 4 mps 755 mmHg 35%
    16:00 +35°C° 0 mm 5 mps 755 mmHg 39%
    17:00 +34°C° 0 mm 5 mps 755 mmHg 44%
    18:00 +32°C° 0 mm 5 mps 755 mmHg 49%
    19:00 +30°C° 0 mm 6 mps 756 mmHg 54%
    20:00 +29°C° 0 mm 6 mps 756 mmHg 59%
    21:00 +29°C° 0 mm 6 mps 756 mmHg 59%
    22:00 +28°C° 0 mm 6 mps 756 mmHg 59%
    23:00 +28°C° 0 mm 6 mps 757 mmHg 59%

    22 November, Thursday

    Time Temperature Precipitation Wind Pressure Humidity
    00:00 +28°C° 0 mm 6 mps 756 mmHg 59%
    01:00 +27°C° 0 mm 6 mps 756 mmHg 59%
    02:00 +27°C° 0 mm 6 mps 755 mmHg 59%
    03:00 +27°C° 0 mm 5 mps 756 mmHg 59%
    04:00 +26°C° 0 mm 5 mps 756 mmHg 59%
    05:00 +26°C° 0 mm 5 mps 756 mmHg 60%
    06:00 +27°C° 0 mm 5 mps 756 mmHg 57%
    07:00 +27°C° 0 mm 5 mps 757 mmHg 54%
    08:00 +28°C° 0 mm 6 mps 757 mmHg 50%
    09:00 +30°C° 0 mm 6 mps 757 mmHg 43%
    10:00 +33°C° 0 mm 6 mps 757 mmHg 36%
    11:00 +36°C° 0 mm 5 mps 757 mmHg 29%
    12:00 +37°C° 0 mm 5 mps 756 mmHg 28%
    13:00 +37°C° 0 mm 5 mps 755 mmHg 27%
    14:00 +39°C° 0 mm 5 mps 754 mmHg 25%
    15:00 +37°C° 0 mm 5 mps 754 mmHg 32%
    16:00 +35°C° 0 mm 6 mps 754 mmHg 39%
    17:00 +33°C° 0 mm 6 mps 754 mmHg 46%
    18:00 +32°C° 0 mm 6 mps 755 mmHg 48%
    19:00 +32°C° 0 mm 6 mps 755 mmHg 51%
    20:00 +30°C° 0 mm 6 mps 756 mmHg 53%
    21:00 +29°C° 0 mm 7 mps 756 mmHg 54%
    22:00 +29°C° 0 mm 7 mps 756 mmHg 56%
    23:00 +28°C° 0 mm 7 mps 756 mmHg 57%

    23 November, Friday

    Time Temperature Precipitation Wind Pressure Humidity
    00:00 +28°C° 0 mm 7 mps 756 mmHg 57%
    01:00 +27°C° 0 mm 7 mps 755 mmHg 57%
    02:00 +27°C° 0 mm 6 mps 755 mmHg 58%
    03:00 +27°C° 0 mm 6 mps 755 mmHg 58%
    04:00 +27°C° 0 mm 6 mps 755 mmHg 58%
    05:00 +26°C° 0 mm 6 mps 756 mmHg 59%
    06:00 +27°C° 0 mm 6 mps 756 mmHg 57%
    07:00 +28°C° 0 mm 7 mps 756 mmHg 55%
    08:00 +28°C° 0 mm 7 mps 757 mmHg 53%
    09:00 +30°C° 0 mm 7 mps 757 mmHg 46%
    10:00 +33°C° 0 mm 7 mps 757 mmHg 39%
    11:00 +35°C° 0 mm 6 mps 756 mmHg 32%
    12:00 +36°C° 0 mm 6 mps 756 mmHg 29%
    13:00 +38°C° 0 mm 6 mps 755 mmHg 27%
    14:00 +39°C° 0 mm 6 mps 754 mmHg 25%
    15:00 +37°C° 0 mm 5 mps 754 mmHg 29%
    16:00 +36°C° 0 mm 5 mps 754 mmHg 33%
    17:00 +35°C° 0 mm 5 mps 754 mmHg 37%
    18:00 +34°C° 0 mm 5 mps 754 mmHg 40%
    19:00 +33°C° 0 mm 6 mps 755 mmHg 43%
    20:00 +32°C° 0 mm 6 mps 755 mmHg 46%
    21:00 +30°C° 0 mm 6 mps 755 mmHg 48%
    22:00 +29°C° 0 mm 7 mps 755 mmHg 49%
    23:00 +29°C° 0 mm 7 mps 755 mmHg 50%
    Show more